Location: Bartshausen
(51.8454°N, 9.8167°E)
Time: 09:52:48
(UTC+00:00)

Iridium 4 Rocket - Pass Details

Date: 20 February 2026
Orbit: 579 x 887 km, 86.9° (Epoch: 8 March)

Event Time Altitude Azimuth Distance (km) Brightness Sun altitude
Rises 19:58:26 0° 347° (NNW) 3,024 7.0 -30.2°
Reaches altitude 10° 20:01:05 10° 335° (NNW) 2,056 6.3 -30.6°
Maximum altitude 20:04:42 25° 281° (W) 1,272 5.2 -31.1°
Enters shadow 20:06:54 17° 239° (WSW) 1,566 5.4 -31.4°
